This is the latest recevied weather packets stored in our database for station/object VANOK. If no packets are shown the sender has not sent any weather packets the latest 10 day(s).
| Time | Temp. | Humidity | Pressure | Rain* | Wind** | Luminosity | Snow |
|---|---|---|---|---|---|---|---|
| 1777862835 | 2.78° C | 92% | 1006.6 hPa | - | - | - | - |
| 1777861635 | 3.89° C | 89% | 1007 hPa | - | - | - | - |
| 1777860435 | 3.89° C | 88% | 1007.2 hPa | - | - | - | - |
| 1777859235 | 3.89° C | 89% | 1007.3 hPa | - | - | - | - |
| 1777858035 | 3.89° C | 90% | 1007.5 hPa | - | - | - | - |
| 1777856836 | 3.89° C | 89% | 1007.7 hPa | - | - | - | - |
| 1777855635 | 3.89° C | 89% | 1007.7 hPa | - | - | - | - |
| 1777854436 | 4.44° C | 88% | 1008 hPa | - | - | - | - |
| 1777853235 | 3.89° C | 87% | 1008 hPa | - | - | - | - |
| 1777852035 | 4.44° C | 86% | 1007.9 hPa | - | - | - | - |
| 1777850835 | 4.44° C | 87% | 1008.1 hPa | - | - | - | - |
| 1777849634 | 4.44° C | 84% | 1008 hPa | - | - | - | - |
| 1777848435 | 4.44° C | 82% | 1008.4 hPa | - | - | - | - |
| 1777847234 | 4.44° C | 80% | 1008.5 hPa | - | - | - | - |
| 1777846034 | 5° C | 79% | 1008.4 hPa | - | - | - | - |
| 1777844834 | 5° C | 78% | 1008.7 hPa | - | - | - | - |
| 1777843633 | 5° C | 78% | 1008.9 hPa | - | - | - | - |
| 1777842434 | 5° C | 78% | 1008.8 hPa | - | - | - | - |
| 1777841234 | 5.56° C | 76% | 1008.8 hPa | - | - | - | - |
| 1777840034 | 5.56° C | 79% | 1008.9 hPa | - | - | - | - |
| 1777838834 | 5.56° C | 78% | 1008.8 hPa | - | - | - | - |
| 1777837633 | 5.56° C | 72% | 1008.7 hPa | - | - | - | - |
| 1777836433 | 5.56° C | 71% | 1008.7 hPa | - | - | - | - |
| 1777835233 | 6.11° C | 71% | 1008.8 hPa | - | - | - | - |
| 1777834034 | 6.11° C | 70% | 1008.9 hPa | - | - | - | - |
* Rain since midnight (hover to see other rain measurements)
** Current wind speed in m/s (hover to see current wind gust speed)